Location: Proctor
(47.8934°N, 114.3048°W)
Time: 17:03:40
(UTC+00:00)

POLYITAN 1 - Pass Details

Date: 06 July 2022
Orbit: 586 x 605 km, 98.0° (Epoch: 17 August)

Event Time Altitude Azimuth Distance (km) Brightness Sun altitude
Rises 08:33:47 0° 25° (NNE) 2,866 ? -18.5°
Reaches altitude 10° 08:36:21 10° 41° (NE) 1,960 ? -18.4°
Maximum altitude 08:39:43 23° 93° (E) 1,319 ? -18.3°
Enters shadow 08:41:53 16° 133° (SE) 1,612 ? -18.2°
